Estación de Contra Coronel

Ultimos registro cada 15 minutos 46
Estación Fecha / Hora Temperatura Humedad Lluvia Velocidad Dirección Radiación Presion
46 Contra Coronel 05-05-2026 11:15 12 99,5 0 1 76 18,1 1003,3
45 Contra Coronel 05-05-2026 11:00 12 99,3 0 1 45 29,4 1003,8
44 Contra Coronel 05-05-2026 10:45 12 99,1 0,4 1,3 44 34,4 1003,9
43 Contra Coronel 05-05-2026 10:30 12 99 0,4 1 39 23,1 1004,3
42 Contra Coronel 05-05-2026 10:15 12 98,5 0,6 1 31 6,9 1004,5
41 Contra Coronel 05-05-2026 10:00 12,1 97,9 0,4 1,3 7 11,9 1004,7
40 Contra Coronel 05-05-2026 09:45 12,2 97,4 0,2 1,3 4 5,6 1004,6
39 Contra Coronel 05-05-2026 09:30 12,3 96,8 0,2 2 24 28,1 1004,2
38 Contra Coronel 05-05-2026 09:15 12,3 96,6 0 2 29 15,6 1004,4
37 Contra Coronel 05-05-2026 09:00 12,1 97,5 0 1,7 28 23,1 1004,7
36 Contra Coronel 05-05-2026 08:45 11,9 97,9 0 1,3 32 15,6 1004,9
35 Contra Coronel 05-05-2026 08:30 11,8 98,1 0 1,7 27 23,1 1005,1
34 Contra Coronel 05-05-2026 08:15 11,8 97,9 0,2 1 39 8,1 1005,1
33 Contra Coronel 05-05-2026 08:00 11,8 97,7 0,2 1 22 0,6 1005,3
32 Contra Coronel 05-05-2026 07:45 11,8 97,4 0,2 1,3 34 0,6 1005,4
31 Contra Coronel 05-05-2026 07:30 11,8 97,5 0 0,7 35 0,6 1005,4
30 Contra Coronel 05-05-2026 07:15 11,9 97,5 0 1 34 0,6 1005,2
29 Contra Coronel 05-05-2026 07:00 11,8 97,7 0 1 34 0,6 1005,4
28 Contra Coronel 05-05-2026 06:45 11,8 97,9 0 1 29 0,6 1005,4
27 Contra Coronel 05-05-2026 06:30 11,8 98,1 0 1,3 35 0,6 1005,3
26 Contra Coronel 05-05-2026 06:15 11,8 98,4 0 1,7 34 0,6 1005,5
25 Contra Coronel 05-05-2026 06:00 11,8 98,7 0 1,7 35 0,6 1005,7
24 Contra Coronel 05-05-2026 05:45 11,8 98,9 0 1,3 39 0,6 1005,7
23 Contra Coronel 05-05-2026 05:30 11,8 99 0 1,7 31 0,6 1005,7
22 Contra Coronel 05-05-2026 05:15 11,8 99 0 1,3 35 0,6 1005,8
21 Contra Coronel 05-05-2026 05:00 11,8 99,1 0 1,3 25 0,6 1005,8
20 Contra Coronel 05-05-2026 04:45 11,7 99,3 0 1,3 25 0,6 1005,8
19 Contra Coronel 05-05-2026 04:30 11,7 99,4 0 1,3 15 0,6 1005,8
18 Contra Coronel 05-05-2026 04:15 11,6 99,6 0 1 27 0,6 1005,8
17 Contra Coronel 05-05-2026 04:00 11,6 99,5 0,2 1 34 0,6 1006
16 Contra Coronel 05-05-2026 03:45 11,5 99,6 0 0,7 39 0,6 1006,1
15 Contra Coronel 05-05-2026 03:30 11,4 99,6 0 1 48 0,6 1006,3
14 Contra Coronel 05-05-2026 03:15 11,4 99,5 0,2 0 42 0,6 1006,4
13 Contra Coronel 05-05-2026 03:00 11,4 99,4 0,2 0 45 0,6 1006,8
12 Contra Coronel 05-05-2026 02:45 11,3 99,4 0 0 48 0,6 1006,8
11 Contra Coronel 05-05-2026 02:30 11,3 99,4 0,2 0,3 48 0,6 1006,8
10 Contra Coronel 05-05-2026 02:15 11,3 99,3 0 0 59 0,6 1006,9
9 Contra Coronel 05-05-2026 02:00 11,2 99,3 0 0 70 0,6 1006,6
8 Contra Coronel 05-05-2026 01:45 11,3 99,3 0 0,3 79 0,6 1006,7
7 Contra Coronel 05-05-2026 01:30 11,2 99,3 0 0,7 80 0,6 1006,7
6 Contra Coronel 05-05-2026 01:15 11,3 99,3 0,2 0,3 86 0,6 1006,9
5 Contra Coronel 05-05-2026 01:00 11,2 99,3 0,2 0 52 0,6 1006,9
4 Contra Coronel 05-05-2026 00:45 11,1 99,3 0 0 52 0,6 1006,8
3 Contra Coronel 05-05-2026 00:30 11,2 99,3 0 0 56 0,6 1007
2 Contra Coronel 05-05-2026 00:15 11,1 99,3 0 0 25 0,6 1007
1 Contra Coronel 05-05-2026 00:00 11,1 99,2 0,2 0 25 0,6 1007,1